Regional Weather Roundup
Issued by NWS

Home | Current Version | Previous Version | Graphics & Text | Print | Product List | Glossary On
Versions: 1 2 3 4 5 6 7 8 9 10 11 12 13 14 15 16 17 18 19 20 21 22 23 24 25 26 27 28 29 30 31 32 33 34 35 36 37 38 39 40 41 42 43 44 45 46 47 48 49 50
813
ASUS43 KLMK 250702
RWRKY
KENTUCKY REGIONAL WEATHER ROUNDUP
NATIONAL WEATHER SERVICE LOUISVILLE KY
300 AM EDT SUN JUN 25 2017

NOTE "FAIR" INDICATES FEW OR NO CLOUDS BELOW 12,000 FEET
WITH NO SIGNIFICANT WEATHER AND/OR OBSTRUCTIONS TO VISIBILITY.

KYZ001>023-026-027-061>063-070>075-250800-
WESTERN AND SOUTH CENTRAL KENTUCKY

CITY           SKY/WX    TMP DP  RH WIND       PRES   REMARKS
PADUCAH        CLEAR     58  54  86 CALM      30.18S
HENDERSON      CLEAR     55  54  96 W3        30.16
OWENSBORO      CLEAR     60  56  86 CALM      30.16S
HOPKINSVILLE   CLEAR     60  55  84 CALM      30.17S
BOWLING GREEN  CLEAR     63  56  78 S3        30.17R
GLASGOW        NOT AVBL
$$

KYZ024-025-028>034-038-045-046-053-250800-
NORTH CENTRAL KENTUCKY

CITY           SKY/WX    TMP DP  RH WIND       PRES   REMARKS
LOUISVILLE/SDF CLEAR     64  54  69 NW7       30.13S
LOUISVILLE/LOU CLEAR     62  57  83 CALM      30.14S
FORT KNOX      CLEAR     55  54  97 SW3       30.13R
$$

KYZ035>037-039>044-047>052-055>060-089>105-250800-
NORTHEAST KENTUCKY

CITY           SKY/WX    TMP DP  RH WIND       PRES   REMARKS
LEXINGTON      PTCLDY    61  53  75 W3        30.14S
COVINGTON      PTCLDY    59  51  75 W6        30.11S
FRANKFORT      CLEAR     61  53  75 NW3       30.12S
$$

KYZ054-064>069-076>088-106>120-250800-
SOUTHEAST KENTUCKY

CITY           SKY/WX    TMP DP  RH WIND       PRES   REMARKS
JACKSON        CLOUDY    65  56  72 NW6       30.14R
LONDON         PTCLDY    61  58  90 CALM      30.15S
SOMERSET       PTCLDY    59  59 100 CALM      30.17R
MIDDLESBORO    PTCLDY    60  60 100 CALM      30.15S
MONTICELLO     CLOUDY    61  60  97 NW9       30.18S
$$





USA.gov is the U.S. government's official web portal to all federal, state and local government web resources and services.